This is the latest recevied weather packets stored in our database for station/object DM4XI-13. If no packets are shown the sender has not sent any weather packets the latest 10 day(s).
| Time | Temp. | Humidity | Pressure | Rain* | Wind** | Luminosity | Snow |
|---|---|---|---|---|---|---|---|
| 1778149672 | 12.22° C | 77% | 1011 hPa | 0 mm | 1.34 m/s, 286° | 152 W/m² | - |
| 1778149611 | 12.22° C | 77% | 1010.9 hPa | 0 mm | 1.34 m/s, 260° | 152 W/m² | - |
| 1778149550 | 12.22° C | 78% | 1010.9 hPa | 0 mm | 0.89 m/s, 223° | 149 W/m² | - |
| 1778149489 | 12.22° C | 78% | 1010.8 hPa | 0 mm | 0.45 m/s, 196° | 149 W/m² | - |
| 1778149428 | 12.22° C | 78% | 1010.6 hPa | 0 mm | 0.89 m/s, 189° | 156 W/m² | - |
| 1778149367 | 12.22° C | 77% | 1010.9 hPa | 0 mm | 1.34 m/s, 196° | 161 W/m² | - |
| 1778149306 | 12.22° C | 77% | 1010.8 hPa | 0 mm | 0.89 m/s, 346° | 156 W/m² | - |
| 1778149245 | 12.22° C | 78% | 1010.7 hPa | 0 mm | 0.45 m/s, 219° | 143 W/m² | - |
| 1778149184 | 12.22° C | 78% | 1010.8 hPa | 0 mm | 0.45 m/s, 202° | 130 W/m² | - |
| 1778149123 | 12.22° C | 77% | 1010.8 hPa | 0 mm | 0.45 m/s, 272° | 120 W/m² | - |
| 1778149062 | 12.78° C | 77% | 1010.8 hPa | 0 mm | 2.24 m/s, 172° | 109 W/m² | - |
| 1778149001 | 12.78° C | 77% | 1010.8 hPa | 0 mm | 0.89 m/s, 193° | 109 W/m² | - |
| 1778148940 | 12.78° C | 76% | 1010.8 hPa | 0 mm | 1.34 m/s, 191° | 116 W/m² | - |
| 1778148879 | 12.78° C | 76% | 1010.8 hPa | 0 mm | 0.45 m/s, 201° | 126 W/m² | - |
| 1778148818 | 12.78° C | 75% | 1010.8 hPa | 0 mm | 2.68 m/s, 196° | 130 W/m² | - |
| 1778148757 | 12.78° C | 76% | 1010.7 hPa | 0 mm | 0.89 m/s, 199° | 137 W/m² | - |
| 1778148696 | 12.78° C | 75% | 1010.6 hPa | 0 mm | 2.24 m/s, 222° | 147 W/m² | - |
| 1778148635 | 12.78° C | 76% | 1010.9 hPa | 0 mm | 0.45 m/s, 176° | 165 W/m² | - |
| 1778148574 | 12.78° C | 77% | 1010.6 hPa | 0 mm | 2.24 m/s, 240° | 187 W/m² | - |
| 1778148513 | 12.78° C | 77% | 1010.9 hPa | 0 mm | 0.89 m/s, 239° | 206 W/m² | - |
| 1778148452 | 12.78° C | 77% | 1010.8 hPa | 0 mm | 0.89 m/s, 208° | 234 W/m² | - |
| 1778148391 | 12.78° C | 75% | 1010.8 hPa | 0 mm | 2.24 m/s, 296° | 271 W/m² | - |
| 1778148330 | 12.78° C | 76% | 1010.8 hPa | 0 mm | 1.79 m/s, 303° | 298 W/m² | - |
| 1778148269 | 12.78° C | 76% | 1010.5 hPa | 0 mm | 1.34 m/s, 295° | 293 W/m² | - |
| 1778148208 | 12.78° C | 76% | 1010.8 hPa | 0 mm | 1.79 m/s, 305° | 272 W/m² | - |
* Rain latest hour (hover to see other rain measurements)
** Current wind speed in m/s (hover to see current wind gust speed)